Location: Vancouver
(49.2500°N, 123.1330°W)
Time: 08:47:52
(UTC-07:00)

Cosmos 2333 Rocket - Visible Passes

Search period start: 23 October 2014 00:00
Search period end: 02 November 2014 00:00
Orbit: 839 x 863 km, 70.9° (Epoch: 23 October)

Date Brightness Start Highest point End Pass type
(mag) Time Alt. Az. Time Alt. Az. Time Alt. Az.
23 Oct 5.0 02:47:40 12° NNE 02:47:46 12° NNE 02:49:48 10° NE visible
23 Oct 3.6 04:29:46 16° N 04:33:51 36° NE 04:39:03 10° ESE visible
23 Oct 2.4 06:12:52 10° NW 06:18:17 47° WSW 06:23:38 10° S visible
23 Oct 2.9 19:26:25 10° SSE 19:31:21 31° ESE 19:35:13 15° NE visible
23 Oct 2.9 21:09:45 10° SW 21:15:22 53° NW 21:17:18 37° N visible
23 Oct 4.9 22:57:44 10° WNW 22:59:23 14° NW 22:59:23 14° NW visible
24 Oct 5.1 02:37:09 11° NE 02:37:09 11° NE 02:37:31 10° NE visible
24 Oct 3.5 04:19:17 26° N 04:21:34 36° NE 04:26:46 10° ESE visible
24 Oct 2.4 06:01:24 14° NW 06:06:00 47° WSW 06:11:21 10° S visible
24 Oct 3.0 19:14:08 10° SSE 19:19:04 31° ESE 19:24:00 10° NE visible
24 Oct 2.9 20:57:29 10° SW 21:03:05 53° NW 21:06:17 25° NNE visible
24 Oct 4.8 22:45:27 10° WNW 22:48:21 15° NW 22:48:21 15° NW visible
25 Oct 3.5 04:09:02 36° NE 04:09:17 36° NE 04:14:28 10° ESE visible
25 Oct 2.4 05:51:10 28° NW 05:53:43 47° WSW 05:59:04 10° S visible
25 Oct 3.0 19:01:51 10° SSE 19:06:47 31° ESE 19:11:43 10° NE visible
25 Oct 2.9 20:45:12 10° SW 20:50:48 53° NW 20:55:00 18° NNE visible
25 Oct 4.8 22:33:10 10° WNW 22:36:28 15° NNW 22:37:02 15° NNW visible
26 Oct 3.9 03:58:56 28° E 03:58:56 28° E 04:02:11 10° ESE visible
26 Oct 2.4 05:41:04 46° W 05:41:26 47° WSW 05:46:47 10° S visible
26 Oct 3.0 18:49:34 10° SSE 18:54:30 31° ESE 18:59:26 10° NE visible
26 Oct 2.9 20:32:55 10° SW 20:38:31 53° NW 20:43:30 13° NNE visible
26 Oct 4.7 22:20:53 10° WNW 22:24:11 15° NNW 22:25:31 14° NNW visible
27 Oct 4.6 03:48:53 15° ESE 03:48:53 15° ESE 03:49:54 10° ESE visible
27 Oct 3.0 05:31:02 34° SSW 05:31:02 34° SSW 05:34:30 10° S visible
27 Oct 3.0 18:37:17 10° SSE 18:42:13 30° ESE 18:47:09 10° NE visible
27 Oct 2.9 20:20:38 10° SW 20:26:14 53° NW 20:31:50 10° NNE visible
27 Oct 4.8 22:08:36 10° WNW 22:11:54 15° NNW 22:13:51 13° N visible
28 Oct 4.0 05:20:56 17° S 05:20:56 17° S 05:22:13 10° S visible
28 Oct 3.0 18:25:01 10° SSE 18:29:56 30° ESE 18:34:52 10° NE visible
28 Oct 2.9 20:08:21 10° SW 20:13:57 53° NW 20:19:34 10° NNE visible
28 Oct 4.8 21:56:19 10° WNW 21:59:37 15° NNW 22:02:04 12° N visible
29 Oct 3.0 19:56:04 10° SW 20:01:40 53° NW 20:07:17 10° NNE visible
29 Oct 4.8 21:44:02 10° WNW 21:47:20 15° NNW 21:50:13 11° N visible
30 Oct 3.0 19:43:47 10° SW 19:49:23 53° NW 19:55:00 10° NNE visible
30 Oct 4.8 21:31:46 10° WNW 21:35:03 15° NNW 21:38:18 10° N visible
31 Oct 3.0 19:31:30 10° SW 19:37:06 53° NW 19:42:43 10° NNE visible
31 Oct 4.8 21:19:29 10° WNW 21:22:46 15° NNW 21:26:03 10° N visible
01 Nov 3.0 19:19:13 10° SW 19:24:49 53° NW 19:30:26 10° NNE visible
01 Nov 4.7 21:07:12 10° WNW 21:10:29 15° NNW 21:13:46 10° N visible
